Regional Weather Roundup
Issued by NWS Nashville, TN

Home | Current Version | Previous Version | Text Only | Print | Product List | Glossary On
Versions: 1 2 3 4 5 6 7 8 9 10 11 12 13 14 15 16 17 18 19 20 21 22 23 24 25 26 27 28 29 30 31 32 33 34 35 36 37 38 39 40 41 42 43 44 45 46 47 48 49 50
000
ASUS44 KOHX 201710
RWROHX
MIDDLE TENNESSEE HOURLY WEATHER ROUNDUP
NATIONAL WEATHER SERVICE NASHVILLE TN
1200 PM CDT FRI OCT 20 2017

NOTE: "FAIR" INDICATES FEW OR NO CLOUDS BELOW 12,000 FEET WITH
NO SIGNIFICANT WEATHER AND/OR OBSTRUCTIONS TO VISIBILITY.

* THESE REPORTS ARE NOT UNDER NWS QUALITY CONTROL AND MAY NOT
  REPORT WEATHER SUCH AS PRECIPITATION AND FOG.


TNZ005>011-023>034-057-059-062>066-078-080-201800
...NORTHERN MIDDLE TENNESSEE...

CITY           SKY/WX    TMP DP  RH WIND       PRES   REMARKS
CLARKSVILLE    SUNNY     70  50  49 S5        30.27F
CROSSVILLE     SUNNY     71  47  42 NE6       30.31F
GALLATIN       SUNNY     72  48  43 CALM      30.31F
DICKSON          N/A     70  49  47 CALM      30.27F
LEBANON        SUNNY     71  47  42 CALM      30.27
NASHVILLE      PTSUNNY   72  47  40 CALM      30.29F
SMYRNA         SUNNY     71  48  43 CALM      30.29F
SPARTA         SUNNY     72  50  46 CALM      30.28F
WEST NASHVILLE SUNNY     70  48  46 CALM      30.26F
$$
TNZ056-058-060-061-075>077-079-093>097-201800
...SOUTHERN MIDDLE TENNESSEE...

CITY           SKY/WX    TMP DP  RH WIND       PRES   REMARKS
COLUMBIA       SUNNY     72  48  43 CALM      30.26F
FAYETTEVILLE   SUNNY     70  46  43 VRB6      30.28F
PULASKI        SUNNY     70  50  49 VRB5      30.28F
SHELBYVILLE    SUNNY     72  50  46 CALM      30.28F
TULLAHOMA      SUNNY     72  45  37 E3        30.30S
WINCHESTER     SUNNY     72  46  40 NW3         N/A
$$


...KEY TO REMARKS...
VSB - VISIBILITY IN MILES
WCI - WIND CHILL INDEX
HX  - HEAT INDEX




USA.gov is the U.S. government's official web portal to all federal, state and local government web resources and services.